EDW55Q LSZH-LGMK

Flight info

Callsign EDW55Q
Flight time 2h 23m
Altitude 35000
Route DEGES Z2 XEBIX L607 ELMEM N606 GIRIS DCT TISAX DCT NAXAV DCT NIVAS DCT UPIRO DCT PEVAL DCT LOS DCT EBITA DCT ZDA DCT SPL DCT KONUV DCT LASTI DCT LEBGA DCT PETAK DCT PINDO UL607 KEA UL995 VARIX
Aircraft A320/M-SDE2E3FGHIJ1RWXY/LB1

Departure

Time 2026-05-08 10:57
Airport Zürich Airport (LSZH)

Arrival

Time 2026-05-08 13:21
Airport Mykonos Island National Airport (LGMK)
Time Latitude Longitude Altitude Speed Heading
2026-05-08 09:53 47.45354 8.55702 1410 ft 0 kts
2026-05-08 10:46 47.45353 8.55701 1406 ft 2 kts
2026-05-08 10:47 47.45328 8.55698 1408 ft 4 kts
2026-05-08 10:47 47.45301 8.55700 1409 ft 4 kts 351°
2026-05-08 10:47 47.45276 8.55711 1410 ft 4 kts 324°
2026-05-08 10:47 47.45264 8.55732 1406 ft 0 kts 276°
2026-05-08 10:50 47.45271 8.55643 1406 ft 12 kts 276°
2026-05-08 10:50 47.45284 8.55581 1408 ft 9 kts 309°
2026-05-08 10:51 47.45333 8.55538 1412 ft 9 kts 334°
2026-05-08 10:51 47.45404 8.55489 1405 ft 15 kts 334°
2026-05-08 10:51 47.45514 8.55411 1404 ft 19 kts 335°
2026-05-08 10:51 47.45627 8.55340 1404 ft 10 kts 338°
2026-05-08 10:52 47.45670 8.55383 1400 ft 7 kts 75°
2026-05-08 10:52 47.45667 8.55456 1401 ft 8 kts 95°
2026-05-08 10:52 47.45661 8.55547 1406 ft 10 kts 95°
2026-05-08 10:52 47.45652 8.55674 1405 ft 16 kts 97°
2026-05-08 10:53 47.45640 8.55838 1408 ft 15 kts 96°
2026-05-08 10:53 47.45629 8.55992 1411 ft 15 kts 96°
2026-05-08 10:53 47.45618 8.56146 1418 ft 15 kts 96°
2026-05-08 10:53 47.45608 8.56297 1413 ft 15 kts 96°
2026-05-08 10:54 47.45597 8.56445 1416 ft 15 kts 96°
2026-05-08 10:54 47.45586 8.56590 1416 ft 14 kts 96°
2026-05-08 10:54 47.45577 8.56723 1422 ft 13 kts 96°
2026-05-08 10:54 47.45568 8.56849 1420 ft 12 kts 96°
2026-05-08 10:55 47.45564 8.56974 1421 ft 12 kts 72°
2026-05-08 10:55 47.45619 8.57021 1424 ft 7 kts
2026-05-08 10:55 47.45660 8.57017 1425 ft 5 kts 325°
2026-05-08 10:55 47.45664 8.56986 1424 ft 0 kts 275°
2026-05-08 10:56 47.45667 8.56949 1424 ft 23 kts 275°
2026-05-08 10:56 47.45713 8.56295 1414 ft 101 kts 276°
2026-05-08 10:56 47.45809 8.54952 1388 ft 161 kts 276°
2026-05-08 10:57 47.45945 8.53179 1793 ft 176 kts 276°
2026-05-08 10:57 47.46066 8.51389 2612 ft 174 kts 276°
2026-05-08 10:57 47.46192 8.47887 3931 ft 172 kts 256°
2026-05-08 10:58 47.45610 8.46386 4441 ft 170 kts 218°
2026-05-08 10:58 47.44636 8.45339 4823 ft 181 kts 217°
2026-05-08 10:58 47.43769 8.43893 5074 ft 199 kts 245°
2026-05-08 10:58 47.43376 8.41836 5374 ft 217 kts 257°
2026-05-08 10:59 47.43008 8.39626 5996 ft 223 kts 254°
2026-05-08 10:59 47.42349 8.37565 6727 ft 227 kts 227°
2026-05-08 10:59 47.41021 8.36140 7075 ft 250 kts 201°
2026-05-08 10:59 47.39243 8.35900 7414 ft 269 kts 167°
2026-05-08 11:00 47.37603 8.37274 8007 ft 280 kts 133°
2026-05-08 11:00 47.36718 8.39880 8712 ft 288 kts 100°
2026-05-08 11:00 47.36626 8.42862 9431 ft 293 kts 89°
2026-05-08 11:00 47.36796 8.45885 10185 ft 298 kts 84°
2026-05-08 11:01 47.37065 8.49006 10461 ft 319 kts 83°
2026-05-08 11:01 47.37365 8.52360 10670 ft 339 kts 84°
2026-05-08 11:01 47.37652 8.55858 11211 ft 346 kts 84°
2026-05-08 11:01 47.37908 8.59407 11857 ft 350 kts 85°
2026-05-08 11:02 47.38137 8.62999 12517 ft 353 kts 86°
2026-05-08 11:02 47.38550 8.70297 13824 ft 360 kts 86°
2026-05-08 11:02 47.38753 8.73998 14397 ft 363 kts 86°
2026-05-08 11:03 47.38956 8.77732 14958 ft 366 kts 86°
2026-05-08 11:03 47.39158 8.81490 15535 ft 369 kts 86°
2026-05-08 11:03 47.39363 8.85289 16084 ft 373 kts 86°
2026-05-08 11:03 47.39573 8.89115 16631 ft 376 kts 86°
2026-05-08 11:04 47.39786 8.92974 17165 ft 379 kts 86°
2026-05-08 11:04 47.40001 8.96864 17703 ft 383 kts 86°
2026-05-08 11:04 47.40216 9.00799 18244 ft 386 kts 87°
2026-05-08 11:04 47.40431 9.04767 18737 ft 389 kts 87°
2026-05-08 11:05 47.40645 9.08764 19209 ft 393 kts 87°
2026-05-08 11:05 47.40856 9.12800 19690 ft 396 kts 87°
2026-05-08 11:05 47.41067 9.16869 20156 ft 399 kts 87°
2026-05-08 11:05 47.41306 9.20968 20616 ft 403 kts 82°
2026-05-08 11:06 47.42015 9.24995 21056 ft 408 kts 74°
2026-05-08 11:06 47.42755 9.29050 21519 ft 410 kts 79°
2026-05-08 11:06 47.42980 9.33244 21968 ft 411 kts 96°
2026-05-08 11:06 47.42386 9.37403 22421 ft 410 kts 114°
2026-05-08 11:07 47.41017 9.41061 22861 ft 408 kts 129°
2026-05-08 11:07 47.39315 9.44370 23306 ft 411 kts 130°
2026-05-08 11:07 47.37544 9.47764 23750 ft 414 kts 130°
2026-05-08 11:07 47.35839 9.51222 24131 ft 419 kts 125°
2026-05-08 11:08 47.34297 9.54889 24477 ft 422 kts 124°
2026-05-08 11:08 47.32755 9.58576 24799 ft 425 kts 124°
2026-05-08 11:08 47.31200 9.62300 25100 ft 428 kts 125°
2026-05-08 11:08 47.29638 9.66043 25429 ft 430 kts 125°
2026-05-08 11:09 47.28064 9.69807 25752 ft 432 kts 125°
2026-05-08 11:09 47.26486 9.73579 26068 ft 435 kts 125°
2026-05-08 11:09 47.24895 9.77376 26383 ft 437 kts 126°
2026-05-08 11:09 47.23292 9.81191 26680 ft 439 kts 126°
2026-05-08 11:10 47.21679 9.85023 26974 ft 441 kts 126°
2026-05-08 11:10 47.20057 9.88871 27287 ft 444 kts 126°
2026-05-08 11:10 47.18426 9.92736 27584 ft 446 kts 126°
2026-05-08 11:10 47.16787 9.96619 27898 ft 448 kts 126°
2026-05-08 11:11 47.15136 10.00524 28169 ft 451 kts 126°
2026-05-08 11:11 47.13477 10.04439 28458 ft 453 kts 126°
2026-05-08 11:11 47.11808 10.08370 28736 ft 454 kts 126°
2026-05-08 11:11 47.10133 10.12308 29008 ft 456 kts 127°
2026-05-08 11:12 47.08450 10.16267 29264 ft 458 kts 127°
2026-05-08 11:12 47.06760 10.20240 29521 ft 460 kts 127°
2026-05-08 11:12 47.05062 10.24224 29798 ft 461 kts 127°
2026-05-08 11:12 47.03353 10.28221 29997 ft 464 kts 127°
2026-05-08 11:13 47.01639 10.32221 30197 ft 465 kts 127°
2026-05-08 11:13 46.99916 10.36235 30368 ft 466 kts 127°
2026-05-08 11:13 46.98160 10.40313 30564 ft 467 kts 128°
2026-05-08 11:13 46.96451 10.44277 30910 ft 466 kts 128°
2026-05-08 11:14 46.94700 10.48334 31239 ft 465 kts 128°
2026-05-08 11:14 46.92979 10.52329 31548 ft 464 kts 128°
2026-05-08 11:14 46.91259 10.56317 31845 ft 462 kts 128°
2026-05-08 11:14 46.89547 10.60280 32163 ft 460 kts 128°
2026-05-08 11:15 46.87857 10.64185 32493 ft 458 kts 129°
2026-05-08 11:15 46.86128 10.68155 32811 ft 457 kts 129°
2026-05-08 11:15 46.84414 10.72053 33074 ft 456 kts 129°
2026-05-08 11:15 46.82692 10.75946 33338 ft 455 kts 129°
2026-05-08 11:16 46.80976 10.79812 33619 ft 454 kts 129°
2026-05-08 11:16 46.79263 10.83677 33898 ft 453 kts 130°
2026-05-08 11:16 46.77511 10.87483 34183 ft 448 kts 135°
2026-05-08 11:16 46.75486 10.90862 34369 ft 439 kts 142°
2026-05-08 11:17 46.73306 10.93982 34527 ft 439 kts 142°
2026-05-08 11:17 46.71122 10.97098 34745 ft 440 kts 142°
2026-05-08 11:17 46.68931 11.00222 34940 ft 440 kts 142°
2026-05-08 11:17 46.66739 11.03343 35055 ft 442 kts 142°
2026-05-08 11:18 46.64544 11.06467 35094 ft 440 kts 142°
2026-05-08 11:18 46.60183 11.12683 35086 ft 438 kts 142°
2026-05-08 11:19 46.55821 11.18868 35091 ft 438 kts 142°
2026-05-08 11:19 46.51460 11.25052 35029 ft 438 kts 142°
2026-05-08 11:20 46.47097 11.31216 35032 ft 438 kts 142°
2026-05-08 11:20 46.43069 11.37937 35016 ft 443 kts 136°
2026-05-08 11:21 46.39109 11.44777 35042 ft 443 kts 136°
2026-05-08 11:21 46.35146 11.51602 35049 ft 442 kts 136°
2026-05-08 11:22 46.31824 11.57305 35051 ft 442 kts 136°
2026-05-08 11:22 46.27857 11.64102 35049 ft 442 kts 136°
2026-05-08 11:23 46.23887 11.70895 35050 ft 442 kts 136°
2026-05-08 11:23 46.19907 11.77682 35052 ft 442 kts 136°
2026-05-08 11:24 46.15926 11.84443 35055 ft 442 kts 136°
2026-05-08 11:24 46.11941 11.91197 35059 ft 442 kts 137°
2026-05-08 11:25 46.07953 11.97948 35062 ft 442 kts 137°
2026-05-08 11:25 46.03966 12.04690 35049 ft 442 kts 137°
2026-05-08 11:26 45.99973 12.11416 35067 ft 442 kts 137°
2026-05-08 11:26 45.95974 12.18127 35070 ft 442 kts 137°
2026-05-08 11:27 45.91948 12.24866 35062 ft 442 kts 137°
2026-05-08 11:27 45.87958 12.31560 35047 ft 441 kts 136°
2026-05-08 11:28 45.83988 12.38282 35045 ft 441 kts 136°
2026-05-08 11:28 45.80027 12.44994 35051 ft 441 kts 136°
2026-05-08 11:29 45.76052 12.51695 35054 ft 441 kts 137°
2026-05-08 11:29 45.72075 12.58369 35060 ft 441 kts 137°
2026-05-08 11:30 45.68182 12.65162 35045 ft 443 kts 134°
2026-05-08 11:30 45.64395 12.72110 35039 ft 443 kts 134°
2026-05-08 11:31 45.60607 12.79052 35050 ft 442 kts 134°
2026-05-08 11:31 45.56769 12.85906 35055 ft 442 kts 135°
2026-05-08 11:32 45.52907 12.92723 35055 ft 442 kts 135°
2026-05-08 11:32 45.49049 12.99536 35046 ft 441 kts 134°
2026-05-08 11:33 45.45198 13.06339 35052 ft 441 kts 134°
2026-05-08 11:33 45.41355 13.13137 35055 ft 441 kts 134°
2026-05-08 11:34 45.37505 13.19918 35046 ft 440 kts 134°
2026-05-08 11:34 45.33649 13.26676 35029 ft 440 kts 134°
2026-05-08 11:35 45.29766 13.33466 35039 ft 440 kts 134°
2026-05-08 11:35 45.25903 13.40211 35039 ft 440 kts 134°
2026-05-08 11:36 45.22045 13.46952 35041 ft 440 kts 134°
2026-05-08 11:36 45.18182 13.53679 35042 ft 440 kts 134°
2026-05-08 11:37 45.14310 13.60392 35021 ft 440 kts 134°
2026-05-08 11:37 45.10425 13.67112 35030 ft 441 kts 134°
2026-05-08 11:38 45.06539 13.73836 35034 ft 441 kts 134°
2026-05-08 11:38 45.02646 13.80547 35032 ft 442 kts 134°
2026-05-08 11:39 44.98742 13.87251 35040 ft 442 kts 134°
2026-05-08 11:39 44.94835 13.93940 35038 ft 441 kts 134°
2026-05-08 11:40 44.90932 14.00622 35032 ft 441 kts 134°
2026-05-08 11:40 44.87024 14.07286 35040 ft 440 kts 134°
2026-05-08 11:41 44.83125 14.13938 35040 ft 440 kts 134°
2026-05-08 11:41 44.79223 14.20570 35034 ft 439 kts 134°
2026-05-08 11:42 44.75318 14.27180 35040 ft 439 kts 134°
2026-05-08 11:42 44.71385 14.33833 35052 ft 439 kts 134°
2026-05-08 11:43 44.67475 14.40430 35047 ft 439 kts 135°
2026-05-08 11:43 44.63560 14.47019 35052 ft 439 kts 134°
2026-05-08 11:44 44.59645 14.53592 35045 ft 438 kts 134°
2026-05-08 11:44 44.55732 14.60141 35046 ft 438 kts 134°
2026-05-08 11:45 44.51818 14.66678 35049 ft 438 kts 134°
2026-05-08 11:45 44.47900 14.73215 35049 ft 438 kts 134°
2026-05-08 11:46 44.43984 14.79732 35050 ft 438 kts 134°
2026-05-08 11:46 44.40061 14.86244 35043 ft 437 kts 134°
2026-05-08 11:47 44.36136 14.92746 35049 ft 437 kts 134°
2026-05-08 11:47 44.32210 14.99227 35052 ft 437 kts 134°
2026-05-08 11:48 44.28282 15.05700 35046 ft 437 kts 134°
2026-05-08 11:48 44.24353 15.12162 35032 ft 436 kts 135°
2026-05-08 11:49 44.20419 15.18611 35027 ft 436 kts 135°
2026-05-08 11:49 44.16462 15.25096 35020 ft 436 kts 135°
2026-05-08 11:50 44.12525 15.31527 35014 ft 437 kts 134°
2026-05-08 11:50 44.08581 15.37953 35006 ft 437 kts 135°
2026-05-08 11:51 44.04596 15.44333 35010 ft 437 kts 135°
2026-05-08 11:51 44.00581 15.50688 35017 ft 437 kts 135°
2026-05-08 11:52 43.96568 15.57040 35022 ft 438 kts 135°
2026-05-08 11:52 43.92550 15.63397 35028 ft 438 kts 135°
2026-05-08 11:53 43.88539 15.69741 35038 ft 437 kts 135°
2026-05-08 11:53 43.84536 15.76054 35056 ft 436 kts 135°
2026-05-08 11:54 43.80537 15.82352 35058 ft 435 kts 135°
2026-05-08 11:54 43.76537 15.88630 35054 ft 434 kts 135°
2026-05-08 11:55 43.72542 15.94890 35040 ft 434 kts 135°
2026-05-08 11:55 43.69192 16.00125 35033 ft 434 kts 135°
2026-05-08 11:56 43.65184 16.06364 35021 ft 435 kts 135°
2026-05-08 11:56 43.61172 16.12610 35018 ft 435 kts 135°
2026-05-08 11:57 43.57154 16.18859 35011 ft 436 kts 135°
2026-05-08 11:57 43.53124 16.25097 35014 ft 436 kts 135°
2026-05-08 11:58 43.49183 16.31453 35020 ft 439 kts 128°
2026-05-08 11:58 43.45818 16.38484 34998 ft 440 kts 127°
2026-05-08 11:59 43.40743 16.48992 35019 ft 440 kts 127°
2026-05-08 11:59 43.37355 16.55984 35032 ft 439 kts 127°
2026-05-08 12:00 43.33974 16.62970 35041 ft 439 kts 127°
2026-05-08 12:00 43.30590 16.69937 35037 ft 438 kts 127°
2026-05-08 12:01 43.27207 16.76896 35035 ft 438 kts 127°
2026-05-08 12:01 43.23813 16.83848 35036 ft 438 kts 127°
2026-05-08 12:02 43.20393 16.90830 35035 ft 438 kts 127°
2026-05-08 12:02 43.16993 16.97769 35043 ft 438 kts 127°
2026-05-08 12:03 43.13587 17.04689 35042 ft 438 kts 127°
2026-05-08 12:03 43.10186 17.11608 35046 ft 438 kts 127°
2026-05-08 12:04 43.06785 17.18501 35055 ft 437 kts 127°
2026-05-08 12:04 43.03377 17.25374 35058 ft 436 kts 127°
2026-05-08 12:05 42.99972 17.32236 35057 ft 436 kts 127°
2026-05-08 12:05 42.96558 17.39088 35054 ft 436 kts 127°
2026-05-08 12:06 42.93145 17.45935 35035 ft 437 kts 127°
2026-05-08 12:06 42.89726 17.52791 35032 ft 437 kts 127°
2026-05-08 12:07 42.86298 17.59650 35033 ft 438 kts 127°
2026-05-08 12:07 42.82861 17.66503 35030 ft 438 kts 127°
2026-05-08 12:08 42.79406 17.73353 35032 ft 439 kts 127°
2026-05-08 12:08 42.75950 17.80200 35029 ft 438 kts 128°
2026-05-08 12:09 42.72496 17.87032 35039 ft 438 kts 127°
2026-05-08 12:09 42.69019 17.93912 35038 ft 438 kts 128°
2026-05-08 12:10 42.65557 18.00726 35043 ft 438 kts 128°
2026-05-08 12:10 42.62093 18.07530 35047 ft 438 kts 128°
2026-05-08 12:11 42.58622 18.14334 35054 ft 438 kts 128°
2026-05-08 12:11 42.55148 18.21125 35045 ft 438 kts 127°
2026-05-08 12:12 42.51674 18.27907 35049 ft 438 kts 127°
2026-05-08 12:12 42.48197 18.34688 35048 ft 438 kts 128°
2026-05-08 12:13 42.44715 18.41454 35044 ft 438 kts 128°
2026-05-08 12:13 42.40701 18.47558 35017 ft 434 kts 138°
2026-05-08 12:14 42.36422 18.53307 35018 ft 434 kts 138°
2026-05-08 12:14 42.32131 18.59051 35019 ft 434 kts 138°
2026-05-08 12:15 42.27838 18.64786 35010 ft 434 kts 138°
2026-05-08 12:15 42.23544 18.70530 35010 ft 435 kts 138°
2026-05-08 12:16 42.19239 18.76275 35013 ft 435 kts 138°
2026-05-08 12:16 42.14927 18.82018 35008 ft 437 kts 138°
2026-05-08 12:17 42.10595 18.87768 35011 ft 437 kts 138°
2026-05-08 12:17 42.06252 18.93518 35014 ft 438 kts 138°
2026-05-08 12:18 42.01881 18.99298 35009 ft 438 kts 138°
2026-05-08 12:18 41.97532 19.05040 35012 ft 439 kts 138°
2026-05-08 12:19 41.93173 19.10784 35015 ft 439 kts 138°
2026-05-08 12:19 41.88811 19.16512 35005 ft 439 kts 138°
2026-05-08 12:20 41.84444 19.22245 35012 ft 439 kts 138°
2026-05-08 12:20 41.80091 19.27993 35004 ft 439 kts 138°
2026-05-08 12:21 41.75742 19.33728 35003 ft 439 kts 138°
2026-05-08 12:21 41.71369 19.39430 35000 ft 438 kts 138°
2026-05-08 12:22 41.66991 19.45104 35003 ft 438 kts 138°
2026-05-08 12:22 41.62614 19.50784 34992 ft 439 kts 138°
2026-05-08 12:23 41.58229 19.56470 34987 ft 439 kts 138°
2026-05-08 12:23 41.53839 19.62154 34987 ft 440 kts 138°
2026-05-08 12:24 41.49443 19.67823 34984 ft 440 kts 138°
2026-05-08 12:24 41.45037 19.73491 34987 ft 440 kts 138°
2026-05-08 12:25 41.40600 19.79188 34991 ft 440 kts 138°
2026-05-08 12:25 41.36193 19.84847 34981 ft 440 kts 138°
2026-05-08 12:26 41.31778 19.90497 34987 ft 440 kts 139°
2026-05-08 12:26 41.27362 19.96142 34986 ft 441 kts 139°
2026-05-08 12:27 41.22938 20.01785 34975 ft 441 kts 138°
2026-05-08 12:27 41.18502 20.07418 34991 ft 442 kts 139°
2026-05-08 12:28 41.14807 20.12108 34988 ft 442 kts 138°
2026-05-08 12:28 41.10363 20.17752 34984 ft 443 kts 139°
2026-05-08 12:29 41.05912 20.23395 34997 ft 443 kts 139°
2026-05-08 12:29 41.01435 20.29039 35002 ft 444 kts 139°
2026-05-08 12:30 40.96960 20.34676 35015 ft 444 kts 139°
2026-05-08 12:30 40.92485 20.40311 35016 ft 444 kts 139°
2026-05-08 12:31 40.88007 20.45931 35018 ft 444 kts 139°
2026-05-08 12:31 40.83491 20.51578 35031 ft 444 kts 139°
2026-05-08 12:32 40.79012 20.57184 35035 ft 443 kts 139°
2026-05-08 12:32 40.74535 20.62776 35054 ft 443 kts 139°
2026-05-08 12:33 40.70054 20.68364 35038 ft 443 kts 139°
2026-05-08 12:33 40.65568 20.73942 35032 ft 444 kts 140°
2026-05-08 12:34 40.61062 20.79532 35043 ft 445 kts 140°
2026-05-08 12:34 40.56544 20.85126 35035 ft 446 kts 140°
2026-05-08 12:35 40.52012 20.90729 35045 ft 447 kts 140°
2026-05-08 12:35 40.47478 20.96323 35049 ft 448 kts 141°
2026-05-08 12:36 40.42837 21.01781 35044 ft 448 kts 143°
2026-05-08 12:36 40.38110 21.07140 35052 ft 450 kts 143°
2026-05-08 12:37 40.33374 21.12517 35056 ft 451 kts 143°
2026-05-08 12:37 40.28650 21.17936 35053 ft 452 kts 143°
2026-05-08 12:38 40.23929 21.23362 35056 ft 452 kts 143°
2026-05-08 12:38 40.19198 21.28788 35061 ft 452 kts 143°
2026-05-08 12:39 40.14455 21.34205 35056 ft 453 kts 144°
2026-05-08 12:39 40.09698 21.39616 35063 ft 454 kts 144°
2026-05-08 12:40 40.04902 21.45071 35067 ft 454 kts 144°
2026-05-08 12:40 40.00138 21.50485 35071 ft 454 kts 144°
2026-05-08 12:41 39.95360 21.55889 35076 ft 454 kts 144°
2026-05-08 12:41 39.90588 21.61295 35054 ft 455 kts 144°
2026-05-08 12:42 39.85802 21.66706 35056 ft 456 kts 145°
2026-05-08 12:42 39.80998 21.72113 35061 ft 457 kts 145°
2026-05-08 12:43 39.76180 21.77522 35066 ft 458 kts 145°
2026-05-08 12:43 39.71355 21.82941 35064 ft 461 kts 146°
2026-05-08 12:44 39.66444 21.88442 35085 ft 472 kts 146°
2026-05-08 12:44 39.61426 21.94055 35079 ft 480 kts 146°
2026-05-08 12:45 39.56351 21.99711 35076 ft 482 kts 146°
2026-05-08 12:45 39.51262 22.05363 35070 ft 482 kts 146°
2026-05-08 12:46 39.46175 22.11016 35066 ft 482 kts 146°
2026-05-08 12:46 39.41085 22.16666 35045 ft 482 kts 146°
2026-05-08 12:47 39.35985 22.22307 35032 ft 482 kts 147°
2026-05-08 12:47 39.30879 22.27946 35042 ft 483 kts 146°
2026-05-08 12:48 39.25737 22.33617 35045 ft 483 kts 147°
2026-05-08 12:48 39.20622 22.39249 35046 ft 483 kts 146°
2026-05-08 12:49 39.15506 22.44869 35048 ft 483 kts 147°
2026-05-08 12:49 39.10378 22.50474 35011 ft 483 kts 147°
2026-05-08 12:50 39.05241 22.56082 35047 ft 485 kts 147°
2026-05-08 12:50 39.00101 22.61709 35055 ft 485 kts 147°
2026-05-08 12:51 38.92390 22.70108 35060 ft 485 kts 147°
2026-05-08 12:52 38.87306 22.75634 35069 ft 471 kts 147°
2026-05-08 12:52 38.79858 22.83710 35069 ft 467 kts 147°
2026-05-08 12:53 38.74890 22.89071 35069 ft 467 kts 147°
2026-05-08 12:53 38.69916 22.94418 35069 ft 467 kts 147°
2026-05-08 12:54 38.64952 22.99762 35064 ft 467 kts 147°
2026-05-08 12:54 38.59985 23.05112 35062 ft 467 kts 147°
2026-05-08 12:55 38.54975 23.10484 35036 ft 467 kts 147°
2026-05-08 12:55 38.49997 23.15805 35040 ft 468 kts 148°
2026-05-08 12:56 38.44994 23.21142 35043 ft 469 kts 147°
2026-05-08 12:56 38.40000 23.26479 34934 ft 465 kts 148°
2026-05-08 12:57 38.37540 23.29109 34546 ft 459 kts 148°
2026-05-08 12:57 38.35105 23.31705 34106 ft 455 kts 148°
2026-05-08 12:57 38.32680 23.34283 33602 ft 452 kts 148°
2026-05-08 12:57 38.30273 23.36835 33099 ft 449 kts 148°
2026-05-08 12:58 38.27877 23.39371 32599 ft 446 kts 148°
2026-05-08 12:58 38.25500 23.41888 32113 ft 444 kts 148°
2026-05-08 12:58 38.23135 23.44391 31641 ft 441 kts 148°
2026-05-08 12:58 38.20784 23.46878 31181 ft 438 kts 148°
2026-05-08 12:59 38.18448 23.49349 30732 ft 436 kts 148°
2026-05-08 12:59 38.16121 23.51813 30303 ft 434 kts 148°
2026-05-08 12:59 38.13810 23.54256 29839 ft 431 kts 148°
2026-05-08 12:59 38.11509 23.56683 29372 ft 429 kts 148°
2026-05-08 13:00 38.09215 23.59098 28919 ft 426 kts 148°
2026-05-08 13:00 38.06931 23.61497 28208 ft 430 kts 147°
2026-05-08 13:00 38.04615 23.63922 27653 ft 430 kts 147°
2026-05-08 13:00 38.02341 23.66314 27340 ft 423 kts 147°
2026-05-08 13:01 38.00064 23.68708 26732 ft 425 kts 147°
2026-05-08 13:01 37.97790 23.71093 26247 ft 424 kts 147°
2026-05-08 13:01 37.96253 23.72702 25903 ft 424 kts 146°
2026-05-08 13:01 37.93965 23.75092 25295 ft 427 kts 146°
2026-05-08 13:02 37.91670 23.77491 24713 ft 430 kts 146°
2026-05-08 13:02 37.89395 23.79900 24145 ft 433 kts 142°
2026-05-08 13:02 37.87307 23.82761 23551 ft 439 kts 133°
2026-05-08 13:02 37.85344 23.85730 22882 ft 440 kts 133°
2026-05-08 13:03 37.83373 23.88700 22231 ft 442 kts 134°
2026-05-08 13:03 37.81388 23.91673 21594 ft 443 kts 134°
2026-05-08 13:03 37.79393 23.94653 20966 ft 444 kts 134°
2026-05-08 13:03 37.77398 23.97630 20370 ft 444 kts 134°
2026-05-08 13:04 37.75423 24.00581 20141 ft 434 kts 134°
2026-05-08 13:04 37.73501 24.03453 19980 ft 422 kts 134°
2026-05-08 13:04 37.71623 24.06257 19648 ft 416 kts 134°
2026-05-08 13:04 37.69762 24.09031 19231 ft 412 kts 134°
2026-05-08 13:05 37.67918 24.11773 18832 ft 408 kts 134°
2026-05-08 13:05 37.66085 24.14498 18458 ft 405 kts 134°
2026-05-08 13:05 37.64268 24.17197 18012 ft 402 kts 134°
2026-05-08 13:05 37.62460 24.19876 17562 ft 399 kts 134°
2026-05-08 13:06 37.60665 24.22528 17115 ft 397 kts 134°
2026-05-08 13:06 37.58896 24.25144 16942 ft 386 kts 134°
2026-05-08 13:06 37.57180 24.27697 16814 ft 376 kts 133°
2026-05-08 13:06 37.55716 24.30431 16329 ft 381 kts 120°
2026-05-08 13:07 37.54755 24.33520 15743 ft 375 kts 109°
2026-05-08 13:07 37.53985 24.36602 15348 ft 363 kts 109°
2026-05-08 13:07 37.53219 24.39586 14962 ft 352 kts 109°
2026-05-08 13:07 37.52460 24.42485 14586 ft 349 kts 110°
2026-05-08 13:08 37.51692 24.45391 14206 ft 350 kts 110°
2026-05-08 13:08 37.50920 24.48314 13675 ft 355 kts 110°
2026-05-08 13:08 37.50142 24.51276 13233 ft 356 kts 110°
2026-05-08 13:08 37.49366 24.54232 12836 ft 355 kts 110°
2026-05-08 13:09 37.48583 24.57221 12428 ft 354 kts 110°
2026-05-08 13:09 37.47824 24.60121 12027 ft 353 kts 110°
2026-05-08 13:09 37.47045 24.63090 11607 ft 352 kts 110°
2026-05-08 13:09 37.46278 24.66011 11201 ft 351 kts 110°
2026-05-08 13:10 37.45511 24.68928 10775 ft 350 kts 110°
2026-05-08 13:10 37.44750 24.71822 10431 ft 347 kts 110°
2026-05-08 13:10 37.43998 24.74681 9931 ft 340 kts 110°
2026-05-08 13:10 37.43274 24.77441 9551 ft 325 kts 110°
2026-05-08 13:11 37.42576 24.80109 9046 ft 316 kts 111°
2026-05-08 13:11 37.41897 24.82686 8653 ft 305 kts 111°
2026-05-08 13:11 37.41246 24.85152 8410 ft 287 kts 111°
2026-05-08 13:11 37.40632 24.87479 8094 ft 275 kts 112°
2026-05-08 13:12 37.40032 24.89737 7663 ft 272 kts 112°
2026-05-08 13:12 37.39434 24.91975 7387 ft 268 kts 112°
2026-05-08 13:12 37.38840 24.94192 7046 ft 266 kts 112°
2026-05-08 13:12 37.38252 24.96387 6759 ft 264 kts 113°
2026-05-08 13:13 37.37671 24.98564 6460 ft 261 kts 113°
2026-05-08 13:13 37.37233 25.00772 6144 ft 262 kts 95°
2026-05-08 13:13 37.37520 25.03025 5956 ft 264 kts 68°
2026-05-08 13:13 37.38529 25.04942 5592 ft 265 kts 40°
2026-05-08 13:14 37.40036 25.06234 5240 ft 262 kts 29°
2026-05-08 13:14 37.41590 25.07418 4894 ft 260 kts 30°
2026-05-08 13:14 37.43132 25.08601 4536 ft 259 kts 30°
2026-05-08 13:14 37.44664 25.09779 4199 ft 257 kts 31°
2026-05-08 13:15 37.46168 25.10940 4045 ft 249 kts 31°
2026-05-08 13:15 37.47634 25.12071 3954 ft 243 kts 31°
2026-05-08 13:15 37.49049 25.13163 3842 ft 233 kts 31°
2026-05-08 13:15 37.50388 25.14239 3736 ft 225 kts 40°
2026-05-08 13:16 37.51404 25.15691 3621 ft 220 kts 62°
2026-05-08 13:16 37.51968 25.17478 3288 ft 220 kts 77°
2026-05-08 13:16 37.52395 25.19330 2999 ft 219 kts 76°
2026-05-08 13:16 37.52822 25.21142 2711 ft 210 kts 76°
2026-05-08 13:17 37.53128 25.22827 2617 ft 185 kts 91°
2026-05-08 13:17 37.53004 25.24345 2559 ft 164 kts 105°
2026-05-08 13:17 37.52798 25.25715 2506 ft 154 kts 105°
2026-05-08 13:17 37.52527 25.26997 2401 ft 149 kts 118°
2026-05-08 13:18 37.52032 25.28115 2265 ft 145 kts 132°
2026-05-08 13:18 37.51360 25.29033 2131 ft 141 kts 145°
2026-05-08 13:18 37.50569 25.29750 1981 ft 140 kts 150°
2026-05-08 13:18 37.49764 25.30447 1758 ft 140 kts 150°
2026-05-08 13:19 37.48964 25.31144 1532 ft 140 kts 149°
2026-05-08 13:19 37.48161 25.31847 1366 ft 142 kts 147°
2026-05-08 13:19 37.47359 25.32583 1145 ft 142 kts 146°
2026-05-08 13:19 37.46564 25.33292 913 ft 135 kts 148°
2026-05-08 13:20 37.45746 25.33803 728 ft 131 kts 157°
2026-05-08 13:20 37.44898 25.34214 556 ft 131 kts 159°
2026-05-08 13:20 37.44053 25.34593 409 ft 122 kts 160°
2026-05-08 13:20 37.43395 25.34878 403 ft 78 kts 160°
2026-05-08 13:21 37.42986 25.35058 407 ft 48 kts 160°
2026-05-08 13:21 37.42813 25.35136 409 ft 4 kts 160°
2026-05-08 13:21 37.42793 25.35158 410 ft 4 kts 129°
2026-05-08 13:21 37.42757 25.35194 410 ft 7 kts 179°
2026-05-08 13:22 37.42753 25.35149 410 ft 8 kts 329°
2026-05-08 13:22 37.42808 25.35134 410 ft 8 kts 343°
2026-05-08 13:22 37.42876 25.35105 408 ft 13 kts 341°
2026-05-08 13:22 37.42973 25.35063 407 ft 15 kts 341°
2026-05-08 13:23 37.43067 25.35022 407 ft 17 kts 341°
2026-05-08 13:23 37.43213 25.34959 404 ft 27 kts 341°
2026-05-08 13:23 37.43245 25.34945 404 ft 26 kts 339°
2026-05-08 13:23 37.43346 25.34896 402 ft 15 kts 339°
2026-05-08 13:24 37.43394 25.34846 404 ft 7 kts 290°
2026-05-08 13:24 37.43412 25.34798 401 ft 5 kts 297°
2026-05-08 13:24 37.43424 25.34768 400 ft 2 kts 297°
2026-05-08 13:24 37.43432 25.34749 403 ft 4 kts 297°
2026-05-08 13:25 37.43457 25.34721 406 ft 5 kts 342°
2026-05-08 13:25 37.43485 25.34712 404 ft 4 kts 346°
2026-05-08 13:25 37.43526 25.34699 407 ft 7 kts 346°
2026-05-08 13:25 37.43559 25.34681 408 ft 4 kts 309°
2026-05-08 13:26 37.43563 25.34659 408 ft 3 kts 268°
2026-05-08 13:26 37.43558 25.34634 409 ft 0 kts 256°